Lid_Strength_Index
0 3 4 5 9 9 10 10 8 8 8 5 6 6 7 6 7 9 2 1 0 0 -1 -1 -1 -1 -1 -1 -1 -1 -1 -1 -1 -1 -1 -1 -1 -1 -1 -1 -1 -1 -1 -1 -1 -1 -1 -1 -1
3 5 5 7 10 12 11 8 9 7 7 7 7 5 6 7 4 4 3 1 -0 -0 -1 -1 -1 -1 -1 -1 -1 -1 -1 -1 -1 -1 -1 -1 -1 -1 -1 -1 -1 -1 -1 -1 -1 -1 -1 -1 -1
4 6 7 9 11 11 11 9 8 7 7 8 8 5 5 6 4 3 1 0 -0 -0 -1 -1 -1 -1 -1 -1 -1 -1 -1 -1 -1 -1 -1 -1 -1 -1 -1 -1 -1 -1 -1 -1 -1 -1 -1 -1 -1
5 6 8 11 12 11 9 8 8 8 6 6 6 7 4 3 3 2 0 0 0 -0 -1 -1 -1 -1 -1 -1 -1 -1 -1 -1 -1 -1 -1 -1 -1 -1 -1 -1 -1 -1 -1 -1 -1 -1 -1 -2 -1
4 7 10 12 12 10 9 8 8 8 7 6 5 7 6 3 1 1 1 0 1 0 -1 -1 -1 -1 -1 -1 -1 -1 -1 -1 -1 -1 -1 -1 -1 -1 -1 -1 -1 -1 -1 -1 -1 -1 -1 -1 -2
6 7 12 12 12 10 9 8 8 8 8 5 6 6 5 2 2 1 0 0 -0 0 -0 -1 -1 -1 -1 -1 -1 -1 -1 -1 -1 -1 -1 -1 -1 -1 -1 -1 -1 -1 -2 -2 -2 -1 -2 -2 -2
6 8 10 11 11 11 10 7 8 9 8 6 5 7 5 4 2 1 1 0 -0 -0 -0 -1 -1 -1 -1 -1 -1 -1 -1 -1 -1 -1 -1 -1 -1 -1 -1 -1 -1 -1 -2 -2 -2 -2 -2 -2 -2
6 7 9 10 10 11 8 9 8 8 8 7 5 7 7 4 1 1 1 1 0 0 -0 -0 -1 -1 -1 -1 -1 -1 -1 -1 -1 -1 -1 -1 -1 -1 -1 -1 -1 -1 -1 -1 -2 -2 -2 -2 -2
6 9 10 9 10 9 8 7 7 7 7 8 8 6 3 2 1 2 2 2 1 1 0 -0 -0 -1 -1 -1 -1 -1 -1 -1 -1 -1 -1 -1 -1 -1 -1 -1 -1 -1 -1 -1 -1 -2 -2 -2 -2
8 10 9 7 7 8 7 6 7 8 7 7 6 5 3 2 2 3 3 3 2 2 1 0 -0 -0 -1 -1 -1 -1 -1 -1 -1 -1 -2 -1 -1 -2 -1 -1 -1 -1 -1 -1 -1 -1 -1 -1 -2
8 11 8 7 6 6 7 6 6 8 8 7 7 7 3 3 3 3 3 2 2 1 1 0 -0 -1 -0 -0 -1 -1 -1 -1 -1 -1 -1 -2 -1 -1 -1 -1 -1 -2 -1 -1 -1 -1 -1 -1 -1
9 8 7 6 5 5 6 5 6 6 7 5 5 7 7 4 4 3 3 2 2 1 1 0 -0 -0 -0 -1 -0 -1 -0 -1 -1 -1 -1 -1 -1 -1 -1 -1 -1 -1 -1 -1 -1 -1 -1 -1 -1
8 7 7 6 5 5 5 6 6 6 4 4 5 6 6 5 5 2 2 2 1 2 1 0 -0 -0 -0 -0 -0 -0 -0 -0 -1 -1 -1 -1 -1 -0 -1 -1 -1 -1 -1 -1 -1 -1 -1 -1 -1
6 6 6 6 5 5 6 6 6 6 5 5 6 6 6 5 5 4 3 2 2 1 1 0 0 -0 -0 -0 -0 -0 -1 -1 -1 -1 -1 -1 -1 -1 -0 -0 -0 -1 -1 -1 -1 -1 -0 -0 -1
5 7 6 6 6 6 5 8 7 5 5 5 6 6 6 5 4 6 4 2 2 1 1 1 0 -0 -0 -0 -0 -0 -0 -1 -0 -1 -1 -1 -1 -1 -1 -0 -0 -1 -1 -1 -1 -1 -1 -0 -0
7 7 9 6 6 5 6 10 6 4 6 6 7 8 7 5 4 5 6 4 1 1 1 1 0 0 0 -0 -0 -0 -0 -0 -0 -1 -1 -1 -1 -1 -1 -0 -0 -1 -1 -1 -0 -0 0 0 0
8 10 9 8 5 6 7 8 6 6 7 8 7 7 6 5 5 5 5 5 2 1 1 1 0 1 0 -0 -0 -0 -1 -0 -0 -1 -1 -1 -1 -1 -1 -0 -0 -1 -0 -0 -0 0 0 1 1
11 10 9 9 7 6 7 8 6 6 7 8 7 6 7 7 6 5 5 5 3 1 1 1 1 1 0 0 -0 0 0 -0 -1 -0 -1 -1 -1 -1 -1 -0 -1 -1 -0 0 0 0 0 1 1
8 9 9 8 7 7 8 8 7 7 6 8 8 8 8 7 6 5 6 5 3 1 1 1 1 1 1 1 1 1 2 1 0 -0 -1 -1 -1 -1 -1 -0 -0 -0 0 0 0 0 1 1 0
8 9 9 8 7 8 8 8 7 7 8 8 9 8 7 7 7 6 5 4 2 1 1 1 1 1 1 1 1 0 1 1 0 -0 -0 -1 -1 -1 -1 -1 -0 -0 -0 0 0 0 1 1 1
9 9 9 9 8 7 8 9 9 8 8 8 9 9 7 6 5 5 4 2 1 2 2 1 1 1 0 1 3 3 3 3 3 2 0 -0 -1 -1 -1 -1 -1 -1 -0 0 -0 -0 1 2 1
10 7 8 9 9 11 8 12 9 8 9 8 7 8 6 5 4 3 3 2 2 2 1 1 1 1 2 2 3 1 2 3 1 0 -0 -0 -1 -1 -1 -1 -1 -1 -1 -0 -0 -0 0 1 3
9 7 8 8 9 10 10 11 9 8 9 7 6 5 5 4 4 4 3 2 2 1 1 1 2 2 1 2 -0 1 1 0 0 0 -0 -1 -1 -1 -1 -1 -1 -1 -0 -1 -0 -0 0 0 1
7 8 9 9 9 13 10 11 11 9 8 7 6 6 6 5 5 4 3 2 2 1 1 1 1 0 0 0 0 -0 0 0 1 1 1 0 0 -0 -1 -1 -1 -1 -1 -0 -0 -1 -0 0 1
8 9 13 14 14 14 11 11 10 8 7 7 6 6 6 5 5 5 4 3 2 2 1 1 1 1 0 0 0 0 0 0 1 1 1 0 1 0 0 -0 -0 -0 -1 -1 -1 -0 -0 0 1
9 9 12 16 16 13 11 12 11 7 7 6 6 5 5 6 6 6 5 5 4 4 4 3 2 2 1 1 1 1 -0 1 0 0 1 1 1 0 -1 -0 -0 -0 -1 -1 -1 -0 -0 -0 0
10 11 9 13 13 13 12 11 9 7 7 6 6 6 6 6 5 5 5 5 4 4 4 3 3 3 3 3 2 2 2 1 1 0 -0 0 -0 -0 -0 -0 -0 -0 -0 -0 -1 0 0 -0 -0
8 8 13 12 17 17 14 14 12 10 9 7 7 7 6 6 5 5 5 5 5 5 4 4 4 4 4 3 3 4 3 3 3 3 2 2 1 -0 -0 -0 -0 -0 -0 -0 -0 0 -0 0 0
10 11 11 11 13 16 16 13 9 9 8 8 7 6 6 6 6 6 6 6 5 5 5 5 5 5 5 4 4 4 4 4 4 4 4 3 3 3 3 2 0 0 0 -0 0 0 0 1 1
9 11 11 15 16 14 14 14 7 7 7 7 7 7 7 6 7 7 6 6 6 6 6 6 5 6 5 5 5 5 5 5 5 4 4 4 4 3 3 3 2 2 1 0 0 1 1 1 1